Hourly Data Report for September 24, 2017

All times are specified in Local Standard Time (LST). Add 1 hour to adjust for Daylight Saving Time where and when it is observed.

CLYDE RIVER A
NUNAVUT

70°29'09.000" N
68°31'01.000" W
26.50 m
2400804
71090
YCY

Related Data

No related data is available for this station

Download Data

Hourly Data (September 2017)
Hourly Data Report for September 24, 2017
Temp Definition
°C
Dew Point Temp Definition
°C
Rel Hum Definition
%
Wind Dir Definition
10's deg

Wind Spd Definition
km/h
Visibility Definition
km
Stn Press Definition
kPa
Hmdx Definition


Wind Chill Definition


Weather Definition


TIME
00:00 Legend Double Dagger -0.9 -3.9 80 32 28 16.1 100.52   -7 LegendNANA
01:00 Legend Double Dagger -1.3 -4.5 79 31 18 16.1 100.51   -7 LegendNANA
02:00 Legend Double Dagger -1.4 -3.3 87 32 28 16.1 100.48   -8 LegendNANA
03:00 Legend Double Dagger -1.3 -4.1 81 32 30 16.1 100.47   -8 LegendNANA
04:00 Legend Double Dagger -1.5 -4.0 83 31 32 16.1 100.44   -9 LegendNANA
05:00 Legend Double Dagger -1.4 -2.5 92 32 34 4.8 100.42   -9 Snow
06:00 Legend Double Dagger -1.6 -2.4 94 33 37 1.6 100.42   -9 Snow
07:00 Legend Double Dagger -1.3 -2.8 90 32 41 4.0 100.39   -9 Snow
08:00 Legend Double Dagger -1.3 -2.9 89 32 34 16.1 100.36   -9 Snow
09:00 Legend Double Dagger -1.0 -3.2 85 32 30 LegendMM 100.31   -8 LegendNANA
10:00 Legend Double Dagger -0.9 -2.5 89 33 34 6.4 100.28   -8 Snow
11:00 Legend Double Dagger -0.9 -2.5 89 33 35 16.1 100.23   -8 Snow
12:00 Legend Double Dagger -0.6 -2.0 91 33 43 16.1 100.21   -8 LegendNANA
13:00 Legend Double Dagger -0.6 -2.2 89 32 41 16.1 100.21   -8 Snow
14:00 Legend Double Dagger -0.9 -3.2 84 32 43 14.5 100.20   -9 LegendNANA
15:00 Legend Double Dagger -1.4 -2.7 91 33 41 6.4 100.20   -9 Snow
16:00 Legend Double Dagger -1.5 -3.1 89 32 39 11.3 100.19   -9 LegendNANA
17:00 Legend Double Dagger -1.9 -4.7 81 33 41 16.1 100.17   -10 LegendNANA
18:00 Legend Double Dagger -1.6 -3.7 85 33 46 9.7 100.14   -10 Snow
19:00 Legend Double Dagger -1.6 -2.7 92 32 45 4.0 100.14   -10 Snow
20:00 Legend Double Dagger -1.6 -3.2 89 33 54 4.8 100.07   -11 Snow
21:00 Legend Double Dagger -1.4 -3.6 85 32 45 14.5 100.08   -10 Snow
22:00 Legend Double Dagger -1.4 -3.4 86 32 48 9.7 100.07   -10 Snow
23:00 Legend Double Dagger -1.2 -3.5 85 32 46 11.3 100.08   -9 Snow

Notes on Data Quality.

Legend

  • E = Estimated
  • M = Missing
  • NA = Not Available
  • ‡ = Partner data that is not subject to review by the National Climate Archives
Date modified: